Dewpoint
56 53 51 50 43 39 33 31 31 33 36 39 44 42 50 52 52 50 57 60 64 64 65 67 70 71 70 71 70 69 68 68 68 69 69 68 68 69 69 69 70 69 68 67 67 68 69 69 70
51 46 51 47 38 33 28 32 32 36 42 46 47 47 47 52 51 53 54 62 64 64 66 67 69 70 70 70 70 69 67 67 67 67 68 68 68 68 69 69 70 69 69 68 67 67 68 69 68
49 47 47 41 34 30 29 36 35 36 39 42 44 49 50 50 39 47 64 65 66 66 67 68 69 70 69 69 69 69 68 68 67 67 67 67 68 69 69 69 70 69 69 68 68 68 68 68 68
45 48 46 37 34 32 35 37 36 38 39 40 41 46 42 37 36 50 64 65 63 65 66 67 69 69 69 69 68 68 69 68 67 68 67 67 68 69 69 70 70 70 69 68 68 69 70 70 69
46 47 37 33 31 31 37 37 39 39 38 39 41 45 38 32 42 54 61 61 61 61 57 61 66 67 67 67 68 68 68 68 67 67 67 67 68 68 69 69 69 69 69 68 67 69 69 69 69
44 41 34 31 31 32 37 37 40 38 38 39 40 43 35 31 33 39 47 50 52 51 52 53 57 61 63 64 65 66 67 67 67 67 67 67 68 68 67 67 68 67 69 68 68 69 69 69 68
42 38 32 32 30 33 36 39 39 38 37 39 37 39 32 29 28 29 33 36 39 42 45 46 49 56 58 59 60 62 62 60 60 61 62 64 65 66 67 67 66 66 67 68 68 68 68 68 67
42 39 35 33 28 31 37 37 38 37 36 34 36 38 34 27 25 25 27 29 31 35 39 41 43 46 48 50 56 56 57 56 55 55 55 57 61 63 63 65 66 66 66 67 67 67 67 67 66
42 38 32 32 30 32 35 36 34 26 28 33 33 30 26 26 25 26 27 27 30 33 36 39 41 42 42 45 49 54 53 55 54 54 55 53 53 54 59 60 63 66 66 65 65 67 67 65 64
40 38 34 31 32 33 33 33 32 27 30 31 24 22 23 24 25 27 26 24 22 31 33 38 40 41 40 38 45 46 46 48 49 50 51 53 52 54 55 57 60 62 63 65 65 65 65 63 64
38 34 29 29 32 29 30 29 31 27 28 31 28 22 20 19 18 16 15 15 21 28 32 38 40 41 42 42 44 46 47 48 49 47 49 50 50 53 54 55 56 56 58 64 63 63 64 64 64
34 34 33 31 28 27 25 21 20 23 26 11 13 18 18 14 13 14 17 19 22 26 34 35 39 42 42 43 42 42 43 43 45 45 46 47 48 49 50 51 53 53 55 56 62 63 63 63 64
33 33 30 32 23 23 21 20 19 17 17 12 13 16 14 12 14 16 18 21 24 25 33 36 38 39 40 41 42 42 42 43 44 44 46 47 46 46 48 49 51 53 54 53 54 58 62 63 63
24 28 29 21 23 22 19 17 16 14 16 14 10 11 13 13 14 16 18 20 24 26 33 37 38 38 38 39 39 41 41 42 42 43 44 44 45 46 46 46 47 49 53 53 53 53 55 57 59
23 20 25 21 17 17 17 12 12 13 11 11 11 11 14 15 13 13 18 20 21 30 37 36 34 35 36 36 38 40 41 40 41 41 41 41 42 42 42 44 44 46 47 51 52 51 51 52 54
19 18 13 13 17 17 13 5 9 7 10 11 9 10 13 13 14 17 20 21 24 34 34 34 33 35 36 36 37 38 39 39 40 40 40 40 41 41 41 42 42 44 44 46 50 50 49 49 48
19 13 10 13 14 14 13 10 6 7 7 8 8 9 10 15 21 23 23 26 30 31 32 33 34 35 36 36 36 36 37 38 39 38 38 37 39 40 39 40 40 42 42 43 45 45 48 48 47
15 10 5 8 11 12 11 9 8 6 7 7 8 6 7 15 24 28 27 28 29 30 30 31 33 33 34 36 36 36 36 37 37 37 37 38 38 38 38 38 38 39 39 40 42 43 45 47 46
14 11 9 9 12 10 8 6 4 3 7 8 7 7 5 11 25 28 28 29 29 30 30 31 31 32 33 33 33 33 32 34 34 35 36 36 36 37 37 37 37 37 38 38 40 41 42 43 47
17 12 9 11 12 8 6 7 6 4 3 7 7 7 8 13 25 27 28 29 28 29 31 31 32 31 31 32 32 32 32 32 33 34 34 36 36 37 36 36 37 37 37 37 38 39 39 42 45
13 12 10 10 13 11 12 17 15 13 14 17 17 13 10 14 26 26 27 28 29 29 32 32 32 31 30 30 31 31 32 32 32 33 34 34 36 36 36 35 35 35 36 36 36 38 38 38 40
12 11 10 13 12 20 17 17 14 13 16 18 19 19 18 16 27 26 27 27 29 31 33 32 32 31 30 30 30 30 29 29 30 30 32 33 35 35 36 35 35 35 35 35 36 36 37 37 37
18 17 15 18 15 17 15 16 19 11 12 18 19 19 16 23 29 28 27 27 29 32 33 33 31 31 30 30 30 29 29 30 30 30 31 32 33 34 34 35 34 33 33 34 34 35 36 37 37
20 20 20 19 18 15 18 15 17 12 10 10 19 20 21 27 28 26 26 28 29 33 33 32 31 30 31 30 30 29 29 29 29 30 30 30 31 30 31 32 33 33 33 33 33 34 34 35 36
22 16 20 16 12 14 15 14 15 6 9 13 18 21 23 27 26 25 25 28 29 31 32 31 30 31 31 30 30 30 30 30 29 29 30 29 29 30 30 31 31 32 32 33 34 34 34 34 35
20 24 25 12 19 18 10 10 10 12 13 15 18 22 24 26 26 25 24 27 29 31 31 30 30 30 30 30 30 30 30 30 30 29 29 29 29 29 30 30 31 32 32 33 33 33 34 34 35
18 17 18 19 13 13 18 13 13 13 13 12 14 16 20 25 28 27 24 27 29 31 31 30 30 30 30 30 30 30 29 29 29 29 29 28 29 28 28 28 30 30 31 32 32 33 34 34 35
22 15 16 18 10 9 20 17 11 12 9 14 16 17 21 23 28 26 24 28 30 31 30 30 30 30 30 30 30 29 30 30 29 29 28 29 28 29 29 29 30 30 31 31 31 32 33 33 35
18 21 23 23 22 19 16 20 16 13 13 16 16 14 16 24 26 25 25 28 30 31 30 30 30 30 30 31 30 30 30 30 29 29 29 28 28 28 29 29 30 30 30 31 31 32 32 33 34
16 19 22 22 15 16 19 19 16 12 19 19 17 16 22 25 26 27 26 29 30 31 31 30 29 29 30 30 30 30 30 30 29 28 29 29 28 29 29 30 30 30 31 32 32 32 32 33 33
Lifted_Index
4 3 3 2 2 3 3 3 3 2 2 1 0 -1 -1 -2 -2 -1 -1 -2 -3 -3 -3 -3 -3 -4 -3 -3 -3 -2 -2 -2 -2 -2 -2 -2 -2 -2 -3 -3 -3 -3 -2 -2 -1 -1 -1 -1 -1
3 3 2 2 3 3 4 3 3 3 2 1 -0 -1 -1 -2 -1 -1 -2 -3 -3 -3 -3 -3 -3 -3 -3 -3 -3 -3 -2 -2 -2 -2 -2 -2 -2 -2 -3 -3 -3 -3 -2 -2 -2 -1 -1 -1 -1
3 3 2 2 3 4 4 3 3 3 2 1 0 -1 -1 -1 -1 -1 -2 -3 -3 -3 -3 -3 -3 -3 -3 -3 -3 -3 -3 -2 -2 -2 -2 -2 -2 -2 -2 -2 -3 -3 -3 -2 -2 -2 -2 -1 -1
3 2 2 3 3 4 3 3 2 2 2 2 1 0 -0 -0 -0 -1 -2 -3 -3 -3 -3 -3 -3 -3 -3 -3 -3 -3 -3 -3 -2 -2 -2 -2 -2 -2 -2 -2 -2 -2 -2 -2 -2 -2 -2 -2 -1
3 3 3 4 4 3 3 3 2 2 2 2 1 1 0 1 1 1 -0 -1 -1 -2 -2 -2 -2 -2 -2 -2 -2 -2 -2 -2 -2 -2 -2 -2 -2 -2 -2 -2 -2 -2 -2 -2 -2 -2 -2 -2 -2
3 3 3 4 3 3 3 2 2 2 1 2 1 1 1 1 2 3 3 2 2 1 -0 -0 -1 -1 -1 -1 -1 -1 -1 -2 -2 -2 -2 -2 -2 -2 -2 -2 -2 -2 -2 -2 -2 -2 -2 -2 -2
3 3 4 4 3 3 2 2 2 2 2 2 2 1 1 2 3 4 5 5 5 4 3 3 3 3 3 2 2 2 2 1 1 1 0 -0 -1 -1 -2 -2 -1 -1 -2 -2 -2 -2 -2 -2 -1
3 3 4 4 4 3 2 2 2 2 2 2 2 2 2 2 3 4 5 6 6 7 7 7 8 8 8 7 7 7 6 6 6 6 5 3 2 1 0 -1 -1 -1 -1 -2 -2 -2 -2 -1 -1
4 4 4 4 4 3 3 3 3 3 3 2 2 3 3 3 4 4 5 7 8 9 10 10 10 11 11 10 10 10 9 9 9 9 8 7 7 6 4 2 1 -0 -1 -1 -1 -1 -1 -1 -0
4 4 4 4 4 4 4 4 4 4 4 3 3 3 4 4 4 5 6 8 10 11 11 11 11 11 11 11 11 10 10 10 10 10 9 9 9 8 7 6 4 3 1 0 -0 -0 -0 -0 -0
5 5 5 5 5 5 5 5 5 5 5 4 4 5 5 5 5 6 8 11 12 12 12 12 11 11 11 11 11 11 11 11 11 10 10 10 10 9 9 8 8 7 5 3 1 1 0 -0 -1
5 5 5 5 6 6 7 7 7 6 6 6 6 6 6 7 7 9 11 12 13 13 12 12 12 12 12 11 11 11 12 12 12 12 11 11 11 11 10 10 9 9 8 7 4 2 1 -0 -1
6 6 6 6 7 7 8 8 7 7 7 7 7 7 8 9 10 11 12 13 13 13 12 12 12 12 12 12 12 12 12 13 13 13 13 13 12 12 11 10 10 9 9 9 8 5 3 1 0
7 7 7 7 8 8 8 7 7 7 8 8 8 8 9 10 11 12 13 13 13 13 12 12 12 12 13 13 13 13 13 13 14 14 14 13 13 12 11 11 10 9 8 8 9 8 6 4 3
7 7 7 7 8 8 7 6 6 7 8 8 8 8 9 11 12 12 13 13 13 13 12 12 12 13 13 13 13 13 14 14 14 14 14 13 13 12 12 11 11 10 9 8 8 8 8 7 6
7 6 5 6 7 7 6 5 5 7 7 7 7 8 9 10 12 12 13 13 13 13 12 13 13 13 13 13 13 13 14 14 14 14 13 13 13 12 12 11 11 11 11 10 9 8 8 8 8
5 4 4 5 6 7 6 5 5 7 7 7 7 8 9 10 11 12 12 13 13 13 13 13 13 13 13 13 13 14 14 14 14 13 13 12 12 12 12 12 12 12 12 11 10 9 9 8 8
4 4 4 5 6 6 5 5 6 7 7 7 7 7 8 9 11 12 12 13 13 13 13 13 13 13 13 13 13 14 14 14 13 12 12 12 12 12 12 12 12 12 12 11 11 11 10 9 9
4 4 4 5 6 6 5 5 6 6 6 6 6 7 8 10 11 12 12 13 13 13 13 13 13 13 13 13 14 14 14 13 12 12 12 12 12 12 12 12 12 12 12 11 11 11 10 10 9
5 4 4 5 6 6 5 5 5 6 6 6 6 7 8 10 11 11 12 12 12 12 12 13 13 13 13 14 14 14 13 13 12 11 11 12 12 13 13 13 13 12 12 11 11 11 10 10 10
5 4 4 5 5 5 5 4 4 5 5 5 6 6 8 9 10 11 12 12 12 12 12 13 13 13 14 14 14 14 13 12 11 11 11 12 13 13 13 13 13 13 12 11 11 11 10 10 10
4 5 5 4 4 4 4 3 3 4 4 4 5 6 7 9 10 11 11 12 12 12 13 13 13 14 14 14 14 13 13 12 11 11 11 12 13 14 14 14 13 13 12 12 11 11 11 10 10
5 5 5 5 4 3 3 3 3 3 3 4 4 5 6 8 9 10 11 12 12 12 13 13 14 14 14 14 13 13 12 12 12 11 11 12 12 13 14 14 14 14 13 13 12 12 12 11 11
5 5 4 4 3 3 3 3 3 3 3 4 4 5 7 8 9 10 11 11 12 12 13 13 14 14 14 14 13 13 13 12 11 11 11 11 11 12 13 14 15 15 15 14 13 13 12 12 12
5 4 2 2 1 2 2 3 3 3 4 4 5 6 7 8 9 10 11 11 11 12 13 13 14 14 14 14 13 13 13 12 12 11 11 11 11 12 13 14 15 15 16 16 15 15 14 13 13
3 3 2 1 1 2 3 3 3 4 4 5 5 6 7 8 8 9 11 11 11 12 12 13 14 14 14 13 13 13 13 12 12 12 11 11 12 13 14 15 15 15 16 16 16 15 15 14 14
3 3 3 2 1 2 2 3 3 4 4 5 6 6 6 7 7 9 10 11 11 12 12 13 13 14 14 13 13 13 13 12 12 12 12 12 13 14 15 15 15 15 16 16 16 15 14 14 14
3 3 3 2 1 1 2 3 3 3 4 4 5 6 6 6 6 7 9 10 11 12 12 13 14 14 14 13 13 13 12 12 12 11 12 13 14 15 15 15 15 15 15 15 15 14 13 13 13
3 3 3 2 1 1 1 2 3 3 3 4 5 6 6 6 6 7 9 10 11 12 13 13 14 14 14 13 13 12 12 11 11 11 12 13 14 15 15 15 15 15 15 14 13 12 12 12 12
4 3 3 2 1 1 2 3 3 4 4 4 5 6 6 6 6 7 9 10 12 12 13 13 14 14 14 13 13 12 11 10 10 11 12 13 13 14 15 15 15 15 14 14 12 11 11 11 11